Time,TemperatureF,DewpointF,PressureIn,WindDirection,WindDirectionDegrees,WindSpeedMPH,WindSpeedGustMPH,Humidity,HourlyPrecipIn,Conditions,Clouds,dailyrainin,SoftwareType,DateUTC
2013-07-16 01:32:00,78.0,71.0,30.21,East,88,0.0,0.0,80,0.00,,,0.00,,2013-07-16 05:32:00,
2013-07-16 01:52:00,78.0,71.0,30.21,East,88,0.0,0.0,80,0.00,,,0.00,,2013-07-16 05:52:00,
2013-07-16 02:01:00,78.0,72.0,30.21,East,87,0.0,0.0,81,0.00,,,0.00,,2013-07-16 06:01:00,
2013-07-16 02:52:00,77.0,71.0,30.21,East,88,0.0,0.0,83,0.00,,,0.00,,2013-07-16 06:52:00,
2013-07-16 03:01:00,77.0,71.0,30.21,East,88,0.0,1.0,83,0.00,,,0.00,,2013-07-16 07:01:00,
2013-07-16 03:11:00,77.0,71.0,30.21,East,88,0.0,0.0,82,0.00,,,0.00,,2013-07-16 07:11:00,
2013-07-16 03:32:00,76.0,70.0,30.21,East,88,0.0,1.0,83,0.00,,,0.00,,2013-07-16 07:32:00,
2013-07-16 03:43:00,76.0,71.0,30.21,East,88,1.0,2.0,84,0.00,,,0.00,,2013-07-16 07:43:00,
2013-07-16 03:52:00,75.0,70.0,30.21,East,88,1.0,2.0,85,0.00,,,0.00,,2013-07-16 07:52:00,
2013-07-16 04:01:00,75.0,70.0,30.21,East,87,0.0,2.0,85,0.00,,,0.00,,2013-07-16 08:01:00,
2013-07-16 04:11:00,75.0,70.0,30.21,ENE,72,1.0,2.0,85,0.00,,,0.00,,2013-07-16 08:11:00,
2013-07-16 04:22:00,75.0,70.0,30.20,ENE,72,0.0,0.0,84,0.00,,,0.00,,2013-07-16 08:22:00,
2013-07-16 04:32:00,75.0,70.0,30.20,ENE,72,0.0,1.0,84,0.00,,,0.00,,2013-07-16 08:32:00,
2013-07-16 04:52:00,76.0,70.0,30.20,ENE,72,0.0,2.0,82,0.00,,,0.00,,2013-07-16 08:52:00,
2013-07-16 05:01:00,76.0,70.0,30.20,East,100,1.0,2.0,81,0.00,,,0.00,,2013-07-16 09:01:00,
2013-07-16 05:32:00,76.0,70.0,30.21,East,100,0.0,2.0,81,0.00,,,0.00,,2013-07-16 09:32:00,
2013-07-16 05:42:00,75.0,69.0,30.21,East,100,1.0,1.0,82,0.00,,,0.00,,2013-07-16 09:42:00,
2013-07-16 05:52:00,75.0,69.0,30.21,East,100,0.0,1.0,83,0.00,,,0.00,,2013-07-16 09:52:00,
2013-07-16 06:43:00,74.0,70.0,30.22,East,87,0.0,0.0,86,0.00,,,0.00,,2013-07-16 10:43:00,
2013-07-16 06:52:00,74.0,70.0,30.22,East,87,0.0,0.0,86,0.00,,,0.00,,2013-07-16 10:52:00,
2013-07-16 08:01:00,75.0,70.0,30.24,East,86,1.0,2.0,85,0.00,,,0.00,,2013-07-16 12:01:00,
2013-07-16 09:11:00,82.0,72.0,30.26,East,86,0.0,1.0,73,0.00,,,0.00,,2013-07-16 13:11:00,
2013-07-16 10:02:00,88.0,74.0,30.27,SE,131,0.0,2.0,63,0.00,,,0.00,,2013-07-16 14:02:00,
2013-07-16 10:52:00,89.0,74.0,30.27,ESE,112,1.0,2.0,62,0.00,,,0.00,,2013-07-16 14:52:00,
2013-07-16 12:43:00,85.0,70.0,30.25,WNW,302,2.0,4.0,62,0.00,,,0.00,,2013-07-16 16:43:00,
2013-07-16 12:52:00,86.0,72.0,30.25,WNW,301,2.0,2.0,63,0.00,,,0.00,,2013-07-16 16:52:00,
2013-07-16 13:43:00,89.0,70.0,30.25,WSW,246,4.0,6.0,53,0.00,,,0.00,,2013-07-16 17:43:00,
2013-07-16 14:01:00,91.0,71.0,30.24,WSW,246,2.0,7.0,52,0.00,,,0.00,,2013-07-16 18:01:00,
2013-07-16 14:43:00,90.0,72.0,30.23,SSW,205,2.0,6.0,55,0.00,,,0.00,,2013-07-16 18:43:00,
2013-07-16 15:43:00,88.0,71.0,30.22,NNW,342,1.0,4.0,58,0.00,,,0.00,,2013-07-16 19:43:00,
2013-07-16 16:43:00,89.0,71.0,30.22,NNW,331,3.0,5.0,56,0.00,,,0.00,,2013-07-16 20:43:00,
2013-07-16 16:52:00,88.0,71.0,30.22,NNW,332,2.0,4.0,58,0.00,,,0.00,,2013-07-16 20:52:00,
2013-07-16 17:11:00,87.0,71.0,30.21,NNW,348,3.0,5.0,60,0.00,,,0.00,,2013-07-16 21:11:00,
2013-07-16 17:52:00,88.0,73.0,30.21,NNW,336,2.0,4.0,61,0.00,,,0.00,,2013-07-16 21:52:00,
2013-07-16 18:43:00,89.0,72.0,30.20,NW,306,2.0,6.0,58,0.00,,,0.00,,2013-07-16 22:43:00,
2013-07-16 18:52:00,89.0,73.0,30.20,NW,305,2.0,5.0,59,0.00,,,0.00,,2013-07-16 22:52:00,
2013-07-16 19:32:00,88.0,72.0,30.20,North,355,2.0,5.0,60,0.00,,,0.00,,2013-07-16 23:32:00,
2013-07-16 19:43:00,88.0,72.0,30.19,North,355,2.0,4.0,60,0.00,,,0.00,,2013-07-16 23:43:00,
2013-07-16 20:01:00,88.0,73.0,30.19,North,355,1.0,3.0,61,0.00,,,0.00,,2013-07-17 00:01:00,
2013-07-16 20:11:00,87.0,72.0,30.19,North,355,1.0,1.0,61,0.00,,,0.00,,2013-07-17 00:11:00,
2013-07-16 20:33:00,88.0,74.0,30.19,North,355,0.0,1.0,63,0.00,,,0.00,,2013-07-17 00:33:00,
2013-07-16 20:42:00,88.0,74.0,30.20,North,355,0.0,3.0,63,0.00,,,0.00,,2013-07-17 00:42:00,
2013-07-16 20:52:00,87.0,74.0,30.20,North,355,2.0,4.0,65,0.00,,,0.00,,2013-07-17 00:52:00,
2013-07-16 21:01:00,86.0,74.0,30.20,North,355,1.0,3.0,67,0.00,,,0.00,,2013-07-17 01:01:00,
2013-07-16 21:11:00,86.0,74.0,30.20,North,355,0.0,0.0,68,0.00,,,0.00,,2013-07-17 01:11:00,
2013-07-16 21:32:00,85.0,74.0,30.19,North,355,2.0,3.0,70,0.00,,,0.00,,2013-07-17 01:32:00,
2013-07-16 21:43:00,85.0,75.0,30.20,North,355,1.0,1.0,71,0.00,,,0.00,,2013-07-17 01:43:00,
2013-07-16 21:53:00,85.0,75.0,30.20,North,355,0.0,1.0,71,0.00,,,0.00,,2013-07-17 01:53:00,
2013-07-16 22:43:00,82.0,73.0,30.22,North,355,2.0,4.0,75,0.00,,,0.00,,2013-07-17 02:43:00,
2013-07-16 22:53:00,82.0,73.0,30.22,North,355,2.0,4.0,75,0.00,,,0.00,,2013-07-17 02:53:00,
2013-07-16 23:43:00,82.0,74.0,30.22,North,355,3.0,5.0,76,0.00,,,0.00,,2013-07-17 03:43:00,